Ames, IA

5:24 PM CDT on May 24, 2018 (GMT -0500)
Ames Municipal

Weather History for KAMW - March, 2014

Change the Weather History Date:

Saturday, March 29, 2014

  Actual Average Record
Temperature  
Mean Temperature 39 °F 43 °F  
Max Temperature 49 °F 54 °F 78 °F (1998)
Min Temperature 28 °F 32 °F 26 °F (2009)
Degree Days  
Heating Degree Days 26 22  
Month to date heating degree days 1022 828  
Since 1 July heating degree days 6888 6113  
Cooling Degree Days 0 0  
Month to date cooling degree days 0 0  
Year to date cooling degree days 0 0  
Moisture  
Dew Point 27 °F    
Average Humidity 67    
Maximum Humidity 92    
Minimum Humidity 42    
Precipitation  
Precipitation 0.00 in 0.10 in 1.48 in (2017)
Month to date precipitation 0.69 1.92  
Sea Level Pressure  
Sea Level Pressure 30.24 in    
Wind  
Wind Speed 7 mph (NNW)    
Max Wind Speed 12 mph    
Max Gust Speed 13 mph    
Visibility 9 miles    
Events      
T = Trace of Precipitation, MM = Missing Value Source: NWS Daily Summary

Daily Weather History Graph

Daily Weather History Graph

Search for Another Location

Airport or City:

Astronomy

Mar. 29, 2014 Rise Set
Actual Time 7:02 AM CDT 7:36 PM CDT
Civil Twilight 6:34 AM CDT 8:04 PM CDT
Nautical Twilight 6:01 AM CDT 8:38 PM CDT
Astronomical Twilight 5:26 AM CDT 9:12 PM CDT
Moon 6:12 AM CDT (3/29) 6:42 PM CDT (3/29)
Length of Visible Light 13h 30m
Length of Day
12h 34m
Waning Crescent, 2% of the Moon is Illuminated
Mar 29
Waning Crescent
Mar 30
New
Apr 7
First Quarter
Apr 15
Full
Apr 22
Last Quarter

Hourly Weather History & Observations

Time (CDT) Temp. Windchill Dew Point Humidity Pressure Visibility Wind Dir Wind Speed Gust Speed Precip Events Conditions
12:53 AM 33.1 °F 24.4 °F 28.0 °F 82% 30.23 in 9.0 mi NNW 11.5 mph - N/A   Overcast
1:53 AM 33.1 °F 26.1 °F 28.9 °F 85% 30.24 in 8.0 mi NNW 8.1 mph - N/A   Overcast
2:28 AM 33.1 °F 24.9 °F 28.9 °F 85% 30.23 in 7.0 mi NNW 10.4 mph - N/A   Overcast
2:53 AM 32.0 °F 23.6 °F 28.0 °F 85% 30.25 in 6.0 mi NNW 10.4 mph - N/A   Partly Cloudy
3:53 AM 30.0 °F 21.7 °F 27.0 °F 88% 30.24 in 8.0 mi NNW 9.2 mph - N/A   Clear
4:53 AM 30.0 °F 21.1 °F 27.0 °F 88% 30.25 in 8.0 mi NNW 10.4 mph - N/A   Clear
5:53 AM 28.9 °F 20.4 °F 26.1 °F 89% 30.26 in 9.0 mi NW 9.2 mph - N/A   Clear
6:53 AM 28.0 °F 19.3 °F 25.0 °F 88% 30.27 in 8.0 mi NNW 9.2 mph - N/A   Clear
7:53 AM 30.0 °F 24.1 °F 25.0 °F 82% 30.29 in 7.0 mi NNW 5.8 mph - N/A   Clear
8:53 AM 32.0 °F 25.6 °F 26.1 °F 79% 30.29 in 10.0 mi NNW 6.9 mph - N/A   Clear
9:53 AM 36.0 °F 31.1 °F 26.1 °F 67% 30.30 in 10.0 mi North 5.8 mph - N/A   Clear
10:53 AM 37.9 °F 32.7 °F 25.0 °F 60% 30.31 in 10.0 mi NW 6.9 mph - N/A   Clear
11:53 AM 41.0 °F 38.0 °F 25.0 °F 53% 30.29 in 10.0 mi NNW 4.6 mph - N/A   Clear
12:53 PM 43.0 °F - 25.0 °F 49% 30.29 in 10.0 mi Calm Calm - N/A   Clear
1:53 PM 44.1 °F 41.5 °F 25.0 °F 47% 30.27 in 10.0 mi Variable 4.6 mph - N/A   Clear
2:53 PM 45.0 °F 43.5 °F 27.0 °F 49% 30.24 in 10.0 mi South 3.5 mph - N/A   Clear
3:53 PM 46.9 °F - 28.0 °F 48% 30.22 in 10.0 mi SSE 5.8 mph - N/A   Clear
4:53 PM 48.0 °F - 27.0 °F 44% 30.19 in 10.0 mi Variable 4.6 mph - N/A   Clear
5:53 PM 48.9 °F - 28.9 °F 46% 30.19 in 10.0 mi SSE 6.9 mph - N/A   Clear
6:53 PM 46.9 °F - 28.0 °F 48% 30.18 in 10.0 mi South 5.8 mph - N/A   Clear
7:53 PM 39.9 °F 35.8 °F 30.0 °F 68% 30.18 in 10.0 mi SE 5.8 mph - N/A   Clear
8:53 PM 39.0 °F 34.8 °F 30.0 °F 70% 30.17 in 10.0 mi SE 5.8 mph - N/A   Clear
9:53 PM 39.0 °F 34.0 °F 28.9 °F 67% 30.17 in 10.0 mi SSE 6.9 mph - N/A   Clear
10:53 PM 36.0 °F 31.1 °F 28.0 °F 73% 30.17 in 10.0 mi SE 5.8 mph - N/A   Clear
11:53 PM 36.0 °F 29.0 °F 28.0 °F 73% 30.16 in 10.0 mi SSE 9.2 mph - N/A   Clear